Regional Weather Roundup
Issued by NWS

Home | Current Version | Previous Version | Graphics & Text | Print | Product List | Glossary Off
Versions: 1 2 3 4 5 6 7 8 9 10 11 12 13 14 15 16 17 18 19 20 21 22 23 24 25 26 27 28 29 30 31 32 33 34 35 36 37 38 39 40 41 42 43 44 45 46 47 48 49 50

000
ASUS43 KTOP 300059
RWRKS

WEATHER ROUNDUP FOR KANSAS
NATIONAL WEATHER SERVICE GOODLAND KS
800 PM CDT WED OCT 29 2014

NOTE:  "FAIR" INDICATES FEW OR NO CLOUDS BELOW 12,000 FEET WITH NO
SIGNIFICANT WEATHER AND/OR OBSTRUCTIONS TO VISIBILITY.

KSZ001>006-013>018-027>032-041>047-300200-
NORTHWEST KANSAS

CITY           SKY/WX    TMP DP  RH WIND       PRES   REMARKS
GOODLAND       CLEAR     54  25  32 S9        30.05R
HAYS           CLEAR     57  39  51 S12       30.02S
HILL CITY      CLEAR     57  36  45 SW3       30.01S
RUSSELL        CLEAR     56  39  53 S10       30.01S
$$

KSZ061>065-074>080-084>089-300200-
SOUTHWEST KANSAS

CITY           SKY/WX    TMP DP  RH WIND       PRES   REMARKS
DODGE CITY     CLEAR     56  39  53 S8        30.06R
ELKHART          N/A     59  35  40 S9          N/A
GARDEN CITY    CLEAR     59  38  45 S5        30.04S
GREAT BEND     CLEAR     55  36  47 SE10      30.05S
LIBERAL        CLEAR     57  36  44 S8        30.07R
$$

KSZ066>073-081>083-090>101-300200-
SOUTHEAST KANSAS

CITY           SKY/WX    TMP DP  RH WIND       PRES   REMARKS
CHANUTE        CLEAR     54  40  59 SE7       30.12S
COFFEYVILLE    CLEAR     57  40  52 SE5       30.12F
HUTCHINSON     CLEAR     56  35  45 S7        30.08R
NEWTON         CLEAR     55  30  38 S8        30.10S
PARSONS        CLEAR     58  41  53 SE3       30.14R
WICHITA INTL   CLEAR     55  32  41 S9        30.09S
WICHITA JABRA  CLEAR     56  33  42 S6        30.09S
WINFIELD       CLEAR     56  36  47 S5        30.12R
$$

KSZ007>012-019>026-033>040-048>060-102>105-300200-
NORTHEAST KANSAS

CITY           SKY/WX    TMP DP  RH WIND       PRES   REMARKS
CONCORDIA      CLEAR     53  39  59 S9        30.02F
EMPORIA        CLEAR     53  37  54 S9        30.10S
LAWRENCE       CLEAR     46  37  71 SE6       30.12S
MANHATTAN      CLEAR     56  37  49 CALM      30.07S
OLATHE IND     CLEAR     53  33  46 SE7       30.13S
OLATHE EXE     CLEAR     51  33  50 SE5       30.12F
SALINA         CLEAR     55  38  52 S10       30.05S
TOPEKA BILLARD CLEAR     51  37  58 SE6       30.11S
TOPEKA FORBES  CLEAR     51  36  56 SE5       30.10S
$$



USA.gov is the U.S. government's official web portal to all federal, state and local government web resources and services.